Theta_e
312 312 312 311 311 311 311 310 310 309 309 309 310 310 311 311 312 310 309 313 313 311 313 315 317 314 315 315 311 316 313 315 312 307 307 306 304 305 304 307 306 306 304 302 302 298 298 315 313 306 311 313 314 315
311 311 311 311 311 311 311 311 310 310 310 309 310 310 310 310 311 312 307 313 314 313 316 321 321 321 319 317 315 316 314 314 316 312 312 311 306 308 306 302 312 304 307 304 306 306 314 314 312 314 315 313 314 314
310 310 310 311 311 311 311 311 311 310 310 310 310 310 311 311 310 309 305 308 309 307 307 308 308 316 318 318 319 312 316 319 317 319 314 313 307 311 305 306 308 311 315 307 307 309 314 315 315 317 318 317 317 317
310 310 310 310 310 310 310 310 310 311 310 310 310 310 311 310 310 309 303 307 306 308 304 309 319 316 319 317 319 320 319 319 318 317 313 311 308 313 307 308 307 310 311 310 309 311 314 318 318 318 319 319 319 318
309 309 309 310 310 310 310 310 310 310 310 310 310 310 310 309 310 308 307 306 306 302 300 302 308 311 316 317 316 319 317 316 313 311 311 309 313 311 311 309 306 311 309 307 307 314 315 314 317 319 318 317 316 315
309 309 309 310 310 310 310 310 310 310 310 310 311 310 310 310 309 304 301 308 308 303 303 299 312 312 315 316 315 319 319 318 315 312 311 314 317 312 307 304 311 314 315 316 313 316 316 317 319 320 318 318 318 316
309 309 309 309 309 309 309 310 310 309 310 310 310 310 310 309 306 299 299 305 307 304 302 301 303 312 315 315 313 316 319 317 316 314 312 312 313 312 308 305 312 316 318 318 319 319 316 318 315 319 319 319 319 317
309 309 309 309 309 309 309 309 309 310 310 310 311 310 310 309 307 301 306 306 307 303 308 299 300 306 314 309 307 315 312 316 316 314 315 312 312 312 306 312 317 319 320 320 319 320 317 317 317 317 318 317 315 314
308 309 309 309 309 308 309 309 309 309 309 309 310 310 306 303 300 305 314 310 315 309 300 300 298 298 313 312 311 311 313 309 317 311 311 313 310 307 312 314 316 319 317 317 320 320 318 316 316 316 316 315 312 312
308 308 308 309 309 309 309 309 309 308 308 308 306 300 297 306 314 315 310 304 304 306 304 297 304 300 307 308 308 308 312 309 305 309 315 309 308 315 318 319 321 320 322 320 316 314 315 316 315 314 313 313 313 315
308 308 308 308 308 308 309 309 308 307 306 303 300 299 306 312 307 301 296 295 297 294 298 298 300 298 306 305 304 309 306 309 302 307 307 306 306 311 317 319 324 323 322 321 319 318 316 315 313 313 313 315 316 319
308 308 308 307 307 308 308 308 308 306 305 302 300 304 304 302 297 290 290 294 294 293 301 298 300 301 308 313 305 307 305 306 301 313 306 303 310 321 320 319 319 325 323 321 320 317 317 317 315 314 315 315 319 320
308 308 308 308 307 307 307 308 308 307 306 303 298 295 294 295 287 287 286 292 294 300 303 304 301 303 307 310 304 304 301 301 309 305 305 307 318 320 321 321 320 321 320 319 318 318 317 316 319 317 315 321 322 322
308 308 308 307 307 307 307 307 306 306 302 293 289 285 288 286 288 293 292 296 301 302 304 304 302 303 305 302 303 298 301 303 300 299 304 315 317 318 318 319 317 317 318 317 316 316 318 317 318 321 321 323 322 321
307 307 307 306 307 307 307 306 305 304 296 290 289 285 287 294 296 297 298 299 301 303 303 303 305 303 303 300 300 300 297 295 300 300 310 318 320 319 318 318 318 318 317 315 316 317 317 321 321 321 324 324 323 321
306 306 305 308 306 306 306 306 303 300 295 291 290 288 292 292 293 296 296 298 303 302 305 307 301 297 297 300 296 296 296 296 302 307 319 321 320 321 320 318 318 318 317 318 318 318 320 322 321 322 324 324 324 319
305 303 305 306 306 306 306 302 298 293 292 289 289 295 294 294 294 296 300 300 304 300 295 297 290 292 299 296 296 302 299 302 304 307 319 321 320 318 319 319 319 320 319 319 319 320 322 324 324 323 318 321 320 319
303 305 306 307 307 304 302 300 295 292 288 290 290 293 296 297 296 297 301 302 301 299 299 293 297 292 291 292 296 299 302 304 305 305 308 321 320 320 320 319 320 320 320 320 322 323 323 322 321 320 321 320 320 319
306 306 306 306 305 300 294 295 296 289 291 295 296 298 298 298 299 300 300 304 304 304 302 298 295 293 295 300 300 302 302 302 301 304 307 319 320 319 320 321 321 321 321 322 322 322 322 322 321 321 321 322 318 319
306 305 306 306 305 298 293 295 299 293 291 294 297 296 298 298 300 300 300 301 303 303 298 295 295 299 300 304 306 305 305 304 302 301 304 316 320 322 320 319 320 321 322 324 322 316 322 320 321 320 319 318 318 318
305 306 305 305 302 301 298 297 295 295 295 293 297 298 297 299 298 297 298 302 301 299 296 299 301 303 307 307 309 308 307 305 303 302 302 304 316 316 315 316 321 323 321 318 320 316 317 320 321 322 321 322 322 322
305 306 304 303 297 298 296 299 295 300 295 294 295 296 295 294 294 297 301 297 296 299 302 302 304 307 306 305 306 307 306 306 305 305 303 307 310 313 311 316 320 320 320 319 319 320 318 322 322 322 323 322 319 322
305 304 302 300 294 292 290 299 293 295 291 292 296 294 294 294 297 304 296 298 299 303 305 305 307 312 309 308 306 306 308 306 304 304 308 309 313 315 313 314 322 320 319 320 323 321 320 315 319 325 323 322 322 322
302 298 295 294 293 288 296 294 296 293 294 292 291 290 294 296 300 298 294 297 302 305 303 308 310 308 306 306 305 307 307 307 306 309 311 310 310 312 314 313 320 322 323 323 321 322 320 320 313 321 322 321 323 320
291 290 292 286 293 291 289 290 292 291 289 291 289 290 295 299 294 294 294 298 302 304 306 308 306 306 302 302 304 305 310 310 309 308 309 314 313 312 311 316 320 323 323 322 321 321 319 321 317 318 320 321 320 317
286 292 288 292 293 291 292 291 292 292 291 288 290 294 297 293 290 291 296 302 306 308 309 309 304 304 304 306 305 305 309 312 310 306 308 310 310 311 314 317 319 322 325 326 323 323 322 323 322 322 321 315 308 317
286 289 295 299 296 297 295 296 298 295 292 292 293 291 287 285 285 291 298 302 303 308 312 314 315 311 306 307 309 313 312 311 308 308 310 312 314 323 323 320 320 323 327 326 327 324 325 324 324 319 317 319 319 319
293 295 291 295 296 298 294 295 294 293 295 299 297 291 287 287 291 298 300 309 313 312 313 316 316 315 312 311 311 309 309 310 311 311 312 315 323 327 325 325 326 311 324 327 327 326 326 325 323 324 320 318 320 320
293 297 297 293 295 296 295 294 295 297 300 299 296 296 298 303 306 307 308 311 314 314 313 313 315 314 313 313 311 310 309 310 310 309 310 315 320 324 326 325 324 321 320 323 310 313 321 313 321 320 320 319 321 321
295 299 295 295 293 292 297 299 299 302 303 303 304 303 303 307 309 312 311 310 311 312 316 318 318 314 312 310 310 310 312 313 316 314 316 315 318 325 325 325 320 320 322 321 325 322 306 314 312 321 320 321 321 320
297 298 296 296 295 299 301 303 304 305 305 305 305 303 303 306 310 316 311 312 313 312 312 312 314 315 316 315 313 312 313 321 326 326 329 326 325 324 324 324 321 320 321 324 325 321 320 320 320 321 321 320 317 316
296 295 295 293 296 301 301 302 303 303 304 305 305 307 308 308 307 315 318 319 318 316 312 314 316 316 319 321 320 323 309 324 327 325 326 326 326 329 327 324 324 325 327 326 324 322 322 321 320 320 319 317 318 319
295 295 296 295 296 296 301 302 301 300 302 303 305 307 307 307 305 315 323 324 326 325 323 322 324 325 327 328 323 323 317 325 312 302 305 305 309 317 325 326 328 326 324 321 321 322 322 322 320 320 321 320 320 321
Wind_Speed
11 11 11 12 13 12 12 13 14 14 15 16 17 18 19 20 19 11 9 11 3 6 14 18 17 13 11 7 4 9 9 6 1 2 2 5 4 6 6 7 6 6 6 4 3 3 3 5 4 4 5 6 8 8
11 12 12 12 13 13 12 12 13 13 14 15 15 16 16 17 17 14 5 10 10 6 8 15 15 19 17 18 11 6 8 10 5 4 2 2 4 4 5 5 6 1 6 6 7 6 3 6 6 6 6 4 6 8
11 12 12 12 12 12 13 13 13 13 14 14 15 15 16 15 15 11 7 7 6 5 10 11 12 14 16 22 17 9 6 5 6 5 4 3 2 3 3 4 6 10 7 2 3 1 6 6 4 5 9 8 7 7
11 11 12 12 12 12 13 14 13 14 14 14 14 15 16 15 14 13 6 6 5 6 7 7 11 9 19 18 17 20 19 14 13 6 4 4 3 3 4 5 2 4 4 1 1 1 2 2 8 7 7 8 8 7
11 11 12 12 12 13 13 13 14 14 14 15 13 14 15 15 14 11 9 6 7 5 6 10 22 26 17 17 22 20 20 15 8 6 5 4 2 3 3 4 5 3 3 2 4 2 5 4 5 7 7 5 4 4
10 11 11 12 12 13 13 13 14 14 14 14 15 14 14 12 12 6 3 5 6 4 5 5 6 12 16 15 13 11 7 8 8 9 6 5 5 5 4 6 9 11 9 4 2 3 6 5 7 7 4 3 7 7
11 11 12 12 13 13 13 13 14 14 14 14 12 12 12 10 6 5 5 4 9 4 3 6 6 9 21 17 6 8 11 6 5 6 8 8 5 3 6 13 8 9 4 4 5 6 6 3 1 7 9 7 6 4
12 12 12 13 13 14 14 14 14 14 14 14 13 13 14 12 13 8 9 18 5 3 3 4 6 6 11 4 7 6 6 7 7 7 4 9 8 8 9 8 4 5 4 1 4 2 5 7 7 8 7 6 7 7
12 12 13 13 13 13 14 13 13 13 12 12 13 15 7 5 4 2 9 11 2 3 3 3 4 5 8 7 5 7 8 9 5 12 10 4 7 8 9 7 5 7 5 4 3 5 7 6 3 6 6 9 7 6
13 12 12 12 12 12 12 12 12 10 12 10 6 4 4 1 11 4 2 3 3 4 4 5 5 5 8 6 4 7 4 5 5 9 5 13 11 8 8 7 4 3 10 8 4 4 7 8 9 8 7 5 4 4
13 12 12 12 12 12 12 10 8 6 6 2 3 3 6 6 2 2 4 5 4 4 6 6 13 10 1 2 3 3 4 5 6 7 10 6 9 14 14 8 7 7 8 7 9 9 8 8 7 6 4 4 3 7
13 12 11 11 12 11 10 9 5 2 1 1 2 5 5 3 2 4 5 5 7 7 8 8 9 10 3 2 1 3 5 4 5 0 10 13 4 7 12 17 13 9 10 10 11 9 8 7 5 2 2 3 4 2
12 11 10 11 11 10 10 9 6 8 3 2 3 4 3 3 5 6 5 6 6 6 6 8 7 5 5 3 1 2 6 5 9 4 4 10 6 5 7 12 12 11 12 11 10 9 7 4 7 5 2 4 5 5
11 11 11 11 10 9 9 6 1 2 1 1 2 5 4 5 6 5 10 8 8 9 11 7 2 5 4 4 2 3 2 6 2 3 1 3 10 10 10 10 14 11 10 10 9 7 8 7 4 4 4 3 5 5
11 11 10 11 13 10 7 5 3 2 1 3 3 6 7 6 5 7 7 9 7 8 9 4 2 4 4 4 3 1 3 3 5 5 1 7 9 9 9 9 9 9 8 8 7 7 7 5 4 3 2 2 4 7
9 13 4 5 4 3 6 4 2 1 2 3 6 6 8 8 10 4 4 7 3 6 7 2 3 1 1 3 5 6 5 7 2 8 2 8 10 8 10 11 10 9 8 7 6 6 2 4 1 2 5 4 7 6
6 2 1 2 5 6 5 2 1 3 4 5 7 9 12 9 10 8 3 3 5 4 5 5 2 2 4 3 5 2 6 6 9 11 5 7 12 13 12 10 8 8 7 6 5 3 1 2 2 6 6 6 6 5
1 1 1 9 4 3 0 2 2 4 7 8 7 8 9 10 8 6 5 5 3 1 2 2 2 1 3 2 3 3 5 7 7 8 12 10 10 10 9 8 7 7 6 5 4 3 1 0 7 5 6 6 5 5
4 1 5 8 3 2 1 3 2 5 9 9 10 8 8 9 10 11 8 5 5 4 2 1 5 2 3 3 1 3 3 5 9 9 14 4 8 7 7 7 6 4 6 4 3 2 2 5 5 4 4 4 3 2
5 3 7 6 4 2 3 4 5 5 6 6 9 8 6 7 8 7 7 4 5 2 3 3 5 4 3 4 2 2 1 4 7 7 12 5 3 4 5 4 4 4 4 4 4 4 4 3 4 4 4 3 3 3
4 4 4 3 2 4 4 3 5 5 6 5 7 6 5 7 8 8 7 5 4 3 4 5 5 6 9 6 3 3 2 3 4 3 8 8 6 1 2 1 3 4 4 3 4 4 4 4 4 4 3 3 3 3
1 7 2 4 4 5 5 5 4 3 4 6 8 7 7 8 9 8 6 8 10 7 7 7 7 4 6 6 2 3 1 5 6 9 11 12 7 1 3 3 7 3 3 3 5 4 4 3 3 4 2 2 3 3
6 4 3 4 5 4 6 4 4 4 4 4 5 4 3 3 4 3 4 7 9 8 6 8 10 3 9 9 8 7 2 5 6 8 9 7 7 3 3 3 3 5 3 1 3 7 5 5 6 3 1 3 3 4
1 3 4 3 5 5 5 4 3 3 3 3 4 5 4 5 3 3 5 5 6 4 7 5 4 5 5 7 5 6 5 5 8 11 8 7 5 4 4 3 4 4 4 3 2 6 4 4 7 4 3 4 5 5
4 5 3 5 4 5 5 5 6 4 4 4 3 4 4 2 3 4 4 6 4 5 5 6 6 6 6 4 3 6 10 11 8 6 8 5 4 4 4 2 3 5 4 3 5 7 4 3 4 4 2 2 3 3
6 6 6 6 5 6 5 4 3 4 3 4 5 3 2 2 3 5 3 4 5 5 3 3 8 6 5 5 4 6 7 4 3 6 10 5 4 3 3 3 3 1 2 1 4 5 6 3 4 6 5 6 6 2
5 7 8 6 6 6 5 6 9 7 4 4 2 1 1 3 4 4 4 5 4 4 3 4 3 4 7 7 6 3 4 5 7 8 7 4 6 3 4 3 6 4 3 4 8 3 4 4 3 6 5 1 1 5
7 6 10 9 6 6 9 8 7 7 3 4 3 5 3 3 4 4 5 3 4 5 5 6 7 5 5 5 5 4 4 6 9 9 5 7 4 5 5 4 6 10 5 5 1 4 4 5 10 8 6 4 1 3
8 5 6 12 10 4 4 4 5 4 7 8 5 3 3 5 5 3 4 5 2 4 2 2 2 2 3 3 4 4 6 6 5 8 8 4 3 1 3 5 4 3 3 3 8 9 8 2 5 9 9 6 6 6
9 7 9 12 9 6 5 6 8 7 8 8 8 9 9 8 7 4 9 5 2 1 2 3 2 5 6 7 7 8 8 9 9 7 5 5 5 5 4 4 5 5 3 5 5 5 7 9 8 5 4 3 2 5
5 4 4 5 9 10 10 6 8 10 9 9 8 9 10 7 7 7 10 6 4 6 4 4 3 5 7 7 7 7 5 3 7 5 2 4 5 5 6 6 7 5 5 6 5 1 7 5 7 7 6 6 11 12
3 4 3 4 5 5 8 4 5 5 5 5 6 6 4 3 3 2 2 3 2 8 14 11 8 6 4 3 4 4 3 7 6 5 6 4 7 7 7 8 8 7 6 5 5 7 8 6 4 4 4 7 8 9
3 4 4 3 3 3 3 3 3 4 3 3 2 3 1 1 2 0 2 2 2 2 1 2 2 2 3 1 7 6 6 5 10 11 6 3 3 1 5 6 3 4 6 6 7 7 9 9 8 5 2 4 3 6
Wind_Direction
315 316 318 323 327 323 328 334 337 340 343 344 345 346 348 350 350 349 288 283 270 284 288 276 278 299 306 309 284 317 344 325 65 154 204 228 251 254 281 260 234 192 162 188 180 218 282 345 19 70 186 63 64 46
323 321 317 317 320 324 320 322 329 332 334 338 339 340 344 348 349 346 281 353 333 259 278 326 287 270 266 273 288 298 287 306 288 23 329 315 292 298 269 276 294 185 157 188 145 187 126 45 62 51 94 113 84 76
319 321 324 319 316 320 325 320 318 322 327 330 332 333 337 339 344 348 299 318 301 265 278 248 252 270 230 231 233 258 278 258 290 294 288 223 216 345 287 282 19 350 27 103 78 154 94 42 357 35 58 76 66 62
319 320 321 325 323 317 318 320 318 317 318 320 322 326 331 333 332 329 294 303 294 279 271 278 298 290 307 307 260 227 245 266 277 296 285 260 189 211 274 281 286 221 11 274 311 33 42 47 88 70 47 40 32 21
312 315 319 318 319 318 314 315 316 314 315 318 315 317 324 327 327 304 264 244 246 277 302 312 315 282 273 265 260 261 218 229 243 258 252 248 241 11 294 310 271 293 266 171 220 80 113 125 104 76 62 40 352 1
308 310 313 316 318 318 317 315 317 315 310 310 311 307 311 321 331 311 302 88 62 9 270 276 316 280 290 283 267 252 205 237 215 221 234 247 243 180 229 231 238 242 258 33 360 112 127 120 121 97 74 356 48 22
308 309 309 310 312 313 314 314 311 313 313 310 305 301 298 301 300 265 285 309 317 344 264 285 260 225 234 249 245 250 201 207 215 234 237 245 240 237 257 253 263 283 334 57 55 44 358 314 224 82 72 47 26 10
302 303 304 306 308 308 307 306 309 310 310 304 297 290 286 287 272 258 242 247 197 244 249 265 266 281 299 231 225 229 224 203 208 221 230 217 228 229 245 236 215 271 287 57 31 293 224 112 79 67 56 42 22 29
300 302 300 298 297 301 306 302 304 310 315 311 302 290 278 210 241 268 101 113 131 263 244 250 265 273 348 344 230 214 212 223 191 217 224 226 228 212 213 205 239 254 205 144 307 265 76 69 75 107 72 54 46 5
300 298 300 299 297 301 308 311 311 319 314 309 290 252 252 42 328 131 256 192 205 209 242 239 285 271 337 357 312 345 218 197 206 219 190 218 235 219 232 248 169 126 179 134 110 79 64 58 57 61 61 52 31 346
299 296 298 307 308 305 307 304 298 310 284 272 270 279 338 325 344 265 240 199 189 228 215 225 219 237 316 342 314 304 303 277 216 226 197 215 225 223 233 235 197 187 179 145 111 103 91 82 78 60 26 1 3 64
295 296 295 301 303 298 305 297 275 210 270 52 333 274 267 264 233 245 248 201 207 225 211 202 206 202 174 137 195 309 281 316 246 1 211 232 212 191 204 212 204 144 123 111 110 114 96 83 79 31 15 43 87 74
294 292 289 295 297 298 301 292 290 262 302 240 207 247 268 261 252 228 227 210 212 206 233 191 170 151 161 162 173 201 277 247 305 245 210 205 142 80 83 105 97 99 101 101 98 98 99 86 75 74 38 64 46 60
296 293 288 294 293 286 288 290 311 296 177 180 241 242 230 225 252 268 307 307 325 332 326 336 197 155 143 140 151 229 230 278 302 281 193 112 125 118 109 109 110 112 109 108 105 100 88 82 71 59 51 337 87 67
295 292 285 280 264 259 253 200 156 69 123 223 229 246 232 252 279 279 300 308 343 305 321 311 123 20 112 123 171 245 221 275 251 247 59 147 124 117 121 119 117 107 96 94 90 86 80 80 66 16 50 55 108 93
298 294 247 246 157 160 141 124 114 130 201 232 234 259 240 250 266 274 279 294 321 318 297 325 22 99 12 133 182 193 210 201 273 352 144 136 120 108 95 93 93 92 93 89 87 92 94 101 41 36 50 78 108 126
296 263 105 175 153 146 144 101 118 221 244 236 244 235 256 266 274 302 293 327 330 5 29 299 119 23 299 270 200 270 21 352 332 326 268 118 116 111 105 99 96 99 103 107 121 138 110 321 159 101 100 111 130 163
279 102 137 129 139 113 104 188 229 242 246 242 248 259 271 286 298 276 250 165 226 239 280 339 244 188 337 297 60 11 356 323 329 310 309 106 97 98 101 107 108 126 133 142 143 136 277 333 125 132 138 160 170 189
13 254 189 174 191 140 211 215 238 259 240 253 250 267 286 280 281 278 277 160 175 189 192 197 289 212 212 158 238 17 350 343 336 342 312 75 84 94 105 116 132 132 130 139 138 207 145 106 132 136 180 174 132 162
256 270 183 200 223 237 237 220 206 253 270 290 298 285 267 268 289 288 295 273 152 191 223 216 238 273 295 125 125 174 153 23 4 357 326 12 105 130 139 151 170 175 143 165 123 98 110 103 118 132 118 148 152 153
207 161 176 223 230 240 258 264 232 245 282 274 290 289 271 281 282 280 273 256 150 207 215 229 266 303 90 110 141 136 68 4 315 284 295 302 315 105 175 205 115 121 149 167 136 135 145 125 129 129 151 158 171 189
151 183 249 182 239 235 245 240 244 301 268 271 293 269 273 264 265 269 260 252 255 221 203 228 258 100 132 144 151 99 119 263 278 291 301 276 253 359 24 4 127 144 128 152 137 127 136 86 111 130 93 38 304 231
175 220 234 218 243 248 255 229 241 230 262 283 305 292 268 271 280 305 266 236 242 257 233 203 224 186 150 141 141 107 228 262 270 284 289 307 311 327 353 55 137 135 150 188 83 113 139 132 80 73 4 48 358 326
158 257 248 236 213 266 272 219 214 243 254 241 257 264 254 202 260 245 252 261 260 232 210 228 207 143 127 145 149 140 208 237 257 259 272 291 307 326 328 299 161 147 157 111 130 116 118 142 147 127 47 356 351 358
255 259 205 255 236 237 249 249 226 200 244 228 244 253 273 335 250 239 254 268 250 198 219 189 198 152 153 171 172 168 202 224 247 276 283 283 301 304 321 107 126 151 156 149 142 134 182 156 131 127 282 336 246 28
227 229 202 232 199 213 244 280 243 231 227 235 231 239 288 273 266 261 295 348 350 343 345 185 174 170 182 168 187 223 210 176 208 257 278 266 275 279 132 147 132 326 57 40 106 110 172 149 138 174 229 182 171 114
245 250 218 228 257 263 265 268 292 287 254 244 243 242 236 236 245 264 279 267 253 261 274 292 273 194 184 184 199 151 166 191 202 228 252 287 279 238 142 170 181 143 150 73 100 204 198 131 71 92 156 47 41 93
238 267 261 270 256 255 262 274 293 287 285 114 212 201 227 247 248 208 233 246 266 281 272 273 229 207 149 149 160 186 221 240 232 236 269 273 232 114 89 73 98 144 143 108 299 350 343 284 256 203 164 127 39 111
238 257 283 280 284 286 263 267 253 251 293 304 305 277 229 219 219 129 276 233 210 246 266 314 316 119 125 148 194 207 228 226 204 230 221 172 113 40 123 129 134 231 140 145 241 241 249 67 148 152 149 164 186 152
256 255 255 268 275 278 251 244 271 278 277 286 294 294 295 287 286 128 172 269 236 180 210 229 217 181 201 199 213 222 222 228 201 203 156 167 185 169 174 190 161 177 176 232 267 291 13 144 81 88 80 110 128 116
304 305 275 249 263 259 265 294 288 282 278 276 276 276 282 292 303 109 164 189 149 269 263 260 242 221 204 208 219 228 234 170 117 97 128 159 125 139 195 180 173 178 198 230 243 112 103 74 126 125 122 98 89 81
260 246 289 272 280 319 317 273 286 276 282 274 268 256 266 260 270 76 351 319 158 174 206 216 214 201 197 207 141 78 105 135 118 125 140 162 179 185 164 167 187 197 194 230 213 118 102 104 96 74 70 89 117 128
246 241 242 270 269 269 279 314 285 309 301 299 308 354 311 301 286 354 165 227 268 311 88 148 221 130 104 97 133 119 75 92 100 94 86 355 106 8 165 196 203 229 181 163 140 129 112 102 78 36 50 332 214 165